FWI649 MMUN-LFPO

Flight info

Callsign FWI649
Flight time N/A
Altitude 37000
Route NUDAL1A NUDAL UV106 PODON UG765 MAXIM DCT VKZ DCT NUCAR A699 SUMRS/M085F370 M204 BEXUM/M085F390 M204 SOORY/M085F370 NATZ 43N050W/M085F390 NATZ ATSUR/M085F410 DCT TAKAS/N0490F410 DCT ALUTA DCT KORER UN482 ANG/N0475F270 UN482 DEKJA/N0483F280 UN482 NIMER DCT CAD
Aircraft A359/H-SDE2E3GHIJ3J4J5LM1ORWXY/LB1D1

Departure

Time 2026-05-06 22:38
Airport Cancún International Airport (MMUN)

Arrival

Time N/A
Airport Paris-Orly Airport (LFPO)
Time Latitude Longitude Altitude Speed Heading
2026-05-06 22:19 21.03533 -86.86858 34 ft 0 kts
2026-05-06 22:29 21.03523 -86.86860 35 ft 4 kts
2026-05-06 22:29 21.03496 -86.86865 34 ft 4 kts
2026-05-06 22:29 21.03469 -86.86870 33 ft 4 kts 13°
2026-05-06 22:30 21.03445 -86.86874 32 ft 2 kts 356°
2026-05-06 22:30 21.03423 -86.86871 34 ft 4 kts 333°
2026-05-06 22:30 21.03406 -86.86857 34 ft 4 kts 296°
2026-05-06 22:30 21.03396 -86.86832 35 ft 4 kts 300°
2026-05-06 22:31 21.03391 -86.86823 32 ft 0 kts 302°
2026-05-06 22:33 21.03395 -86.86830 35 ft 5 kts 302°
2026-05-06 22:33 21.03437 -86.86900 35 ft 17 kts 303°
2026-05-06 22:33 21.03519 -86.87030 36 ft 23 kts 304°
2026-05-06 22:33 21.03608 -86.87173 36 ft 23 kts 304°
2026-05-06 22:34 21.03695 -86.87312 36 ft 21 kts 303°
2026-05-06 22:34 21.03778 -86.87446 36 ft 22 kts 304°
2026-05-06 22:34 21.03819 -86.87589 36 ft 20 kts 259°
2026-05-06 22:34 21.03864 -86.87719 37 ft 19 kts 303°
2026-05-06 22:35 21.03949 -86.87854 36 ft 26 kts 304°
2026-05-06 22:35 21.04049 -86.88015 36 ft 26 kts 303°
2026-05-06 22:35 21.04151 -86.88178 36 ft 27 kts 303°
2026-05-06 22:35 21.04254 -86.88342 37 ft 26 kts 304°
2026-05-06 22:36 21.04359 -86.88507 37 ft 27 kts 303°
2026-05-06 22:36 21.04461 -86.88671 37 ft 27 kts 303°
2026-05-06 22:36 21.04567 -86.88839 36 ft 27 kts 304°
2026-05-06 22:36 21.04628 -86.88996 36 ft 17 kts 246°
2026-05-06 22:37 21.04619 -86.89009 37 ft 2 kts 233°
2026-05-06 22:37 21.04560 -86.89060 37 ft 18 kts 206°
2026-05-06 22:37 21.04478 -86.89015 39 ft 18 kts 122°
2026-05-06 22:37 21.04331 -86.88777 41 ft 67 kts 123°
2026-05-06 22:38 21.03973 -86.88204 40 ft 120 kts 124°
2026-05-06 22:38 21.03419 -86.87318 50 ft 164 kts 124°
2026-05-06 22:38 21.02815 -86.86287 656 ft 160 kts 123°
2026-05-06 22:38 21.02310 -86.85272 1329 ft 153 kts 118°
2026-05-06 22:39 21.01809 -86.84192 1591 ft 171 kts 118°
2026-05-06 22:39 21.01226 -86.82996 1751 ft 192 kts 120°
2026-05-06 22:39 21.00541 -86.81657 1884 ft 218 kts 121°
2026-05-06 22:39 20.99762 -86.80171 2096 ft 238 kts 121°
2026-05-06 22:40 20.98931 -86.78599 2621 ft 245 kts 121°
2026-05-06 22:40 20.98096 -86.77023 3341 ft 244 kts 120°
2026-05-06 22:40 20.97246 -86.75423 3868 ft 251 kts 120°
2026-05-06 22:40 20.96425 -86.73770 4340 ft 259 kts 114°
2026-05-06 22:41 20.96300 -86.69889 5477 ft 268 kts 80°
2026-05-06 22:41 20.96680 -86.67957 6092 ft 271 kts 79°
2026-05-06 22:41 20.97072 -86.65972 6705 ft 273 kts 79°
2026-05-06 22:42 20.97459 -86.63970 7284 ft 276 kts 79°
2026-05-06 22:42 20.97845 -86.61943 7877 ft 280 kts 79°
2026-05-06 22:42 20.98260 -86.59891 8488 ft 283 kts 75°
2026-05-06 22:42 20.98873 -86.57886 9131 ft 285 kts 70°
2026-05-06 22:43 20.99571 -86.55884 9754 ft 289 kts 69°
2026-05-06 22:43 21.00285 -86.53857 10262 ft 296 kts 69°
2026-05-06 22:43 21.01021 -86.51761 10512 ft 312 kts 69°
2026-05-06 22:43 21.01810 -86.49503 10737 ft 328 kts 69°
2026-05-06 22:44 21.02624 -86.47169 10955 ft 342 kts 69°
2026-05-06 22:44 21.03471 -86.44735 11164 ft 355 kts 69°
2026-05-06 22:44 21.04346 -86.42215 11364 ft 367 kts 69°
2026-05-06 22:44 21.05249 -86.39614 11585 ft 377 kts 69°
2026-05-06 22:45 21.06156 -86.36994 11946 ft 382 kts 69°
2026-05-06 22:45 21.07082 -86.34321 12351 ft 385 kts 68°
2026-05-06 22:45 21.08018 -86.31620 12762 ft 387 kts 68°
2026-05-06 22:45 21.08958 -86.28903 13165 ft 390 kts 68°
2026-05-06 22:46 21.09904 -86.26167 13542 ft 393 kts 68°
2026-05-06 22:46 21.10857 -86.23413 13914 ft 395 kts 68°
2026-05-06 22:46 21.11814 -86.20643 14258 ft 397 kts 68°
2026-05-06 22:46 21.12775 -86.17856 14611 ft 399 kts 68°
2026-05-06 22:47 21.13741 -86.15059 14974 ft 401 kts 68°
2026-05-06 22:47 21.14711 -86.12245 15317 ft 403 kts 68°
2026-05-06 22:47 21.15685 -86.09417 15677 ft 406 kts 68°
2026-05-06 22:47 21.16652 -86.06609 16021 ft 407 kts 68°
2026-05-06 22:48 21.17637 -86.03747 16378 ft 409 kts 68°
2026-05-06 22:48 21.18624 -86.00878 16718 ft 412 kts 68°
2026-05-06 22:48 21.19501 -85.97951 17068 ft 415 kts 74°
2026-05-06 22:48 21.20134 -85.94919 17444 ft 417 kts 76°
2026-05-06 22:49 21.20711 -85.91865 17793 ft 419 kts 77°
2026-05-06 22:49 21.21288 -85.88793 18146 ft 422 kts 76°
2026-05-06 22:49 21.21870 -85.85702 18475 ft 424 kts 76°
2026-05-06 22:49 21.22456 -85.82599 18748 ft 426 kts 76°
2026-05-06 22:50 21.23048 -85.79474 19037 ft 429 kts 76°
2026-05-06 22:50 21.23642 -85.76331 19317 ft 431 kts 76°
2026-05-06 22:50 21.24239 -85.73173 19606 ft 433 kts 76°
2026-05-06 22:50 21.24832 -85.70034 19880 ft 436 kts 76°
2026-05-06 22:51 21.25484 -85.66810 20175 ft 437 kts 73°
2026-05-06 22:51 21.26468 -85.63774 20442 ft 437 kts 63°
2026-05-06 22:51 21.27982 -85.60956 20740 ft 436 kts 52°
2026-05-06 22:51 21.29954 -85.58488 21037 ft 436 kts 44°
2026-05-06 22:52 21.32128 -85.56204 21342 ft 438 kts 41°
2026-05-06 22:52 21.34386 -85.53997 21631 ft 440 kts 40°
2026-05-06 22:52 21.36684 -85.51815 21945 ft 443 kts 39°
2026-05-06 22:52 21.39003 -85.49621 22252 ft 445 kts 39°
2026-05-06 22:53 21.41327 -85.47407 22564 ft 448 kts 39°
2026-05-06 22:53 21.43654 -85.45169 22877 ft 450 kts 40°
2026-05-06 22:53 21.45987 -85.42907 23188 ft 453 kts 40°
2026-05-06 22:53 21.48328 -85.40624 23498 ft 456 kts 40°
2026-05-06 22:54 21.50675 -85.38329 23768 ft 458 kts 40°
2026-05-06 22:54 21.53017 -85.36035 24033 ft 460 kts 40°
2026-05-06 22:54 21.55392 -85.33707 24309 ft 462 kts 40°
2026-05-06 22:54 21.57775 -85.31372 24593 ft 464 kts 40°
2026-05-06 22:55 21.60172 -85.29023 24878 ft 466 kts 40°
2026-05-06 22:55 21.62573 -85.26670 25182 ft 468 kts 40°
2026-05-06 22:55 21.64985 -85.24305 25496 ft 471 kts 40°
2026-05-06 22:55 21.67415 -85.21922 25823 ft 473 kts 40°
2026-05-06 22:56 21.69853 -85.19530 26150 ft 475 kts 40°
2026-05-06 22:56 21.72282 -85.17144 26499 ft 478 kts 40°
2026-05-06 22:56 21.74743 -85.14728 26844 ft 480 kts 40°
2026-05-06 22:56 21.77213 -85.12300 27187 ft 482 kts 40°
2026-05-06 22:57 21.79697 -85.09858 27538 ft 485 kts 40°
2026-05-06 22:57 21.82195 -85.07400 27875 ft 487 kts 40°
2026-05-06 22:57 21.84703 -85.04932 28216 ft 490 kts 40°
2026-05-06 22:57 21.87226 -85.02447 28549 ft 492 kts 40°
2026-05-06 22:58 21.89757 -84.99954 28872 ft 494 kts 40°
2026-05-06 22:58 21.92304 -84.97443 29197 ft 496 kts 40°
2026-05-06 22:58 21.94862 -84.94920 29499 ft 499 kts 40°
2026-05-06 22:58 21.97394 -84.92422 29808 ft 501 kts 40°
2026-05-06 22:59 21.99968 -84.89881 30078 ft 503 kts 40°
2026-05-06 22:59 22.02552 -84.87329 30332 ft 504 kts 40°
2026-05-06 22:59 22.05137 -84.84773 30703 ft 502 kts 39°
2026-05-06 22:59 22.07707 -84.82230 31109 ft 500 kts 39°
2026-05-06 23:00 22.10275 -84.79689 31501 ft 498 kts 39°
2026-05-06 23:00 22.12818 -84.77170 31877 ft 496 kts 39°
2026-05-06 23:00 22.15362 -84.74651 32253 ft 495 kts 39°
2026-05-06 23:00 22.17896 -84.72140 32604 ft 494 kts 39°
2026-05-06 23:01 22.20427 -84.69631 32955 ft 492 kts 39°
2026-05-06 23:01 22.22910 -84.67168 33312 ft 491 kts 39°
2026-05-06 23:01 22.25425 -84.64672 33659 ft 490 kts 39°
2026-05-06 23:01 22.27939 -84.62177 33985 ft 489 kts 39°
2026-05-06 23:02 22.30434 -84.59699 34276 ft 488 kts 39°
2026-05-06 23:02 22.32925 -84.57223 34562 ft 486 kts 38°
2026-05-06 23:02 22.35413 -84.54748 34848 ft 485 kts 38°
2026-05-06 23:02 22.37895 -84.52279 35111 ft 484 kts 38°
2026-05-06 23:03 22.40368 -84.49818 35397 ft 482 kts 38°
2026-05-06 23:03 22.42831 -84.47366 35665 ft 481 kts 38°
2026-05-06 23:03 22.45262 -84.44943 35944 ft 480 kts 38°
2026-05-06 23:03 22.47716 -84.42497 36204 ft 478 kts 38°
2026-05-06 23:04 22.50163 -84.40056 36441 ft 478 kts 38°
2026-05-06 23:04 22.52604 -84.37622 36681 ft 477 kts 38°
2026-05-06 23:04 22.55042 -84.35188 36896 ft 476 kts 38°
2026-05-06 23:05 22.59947 -84.30291 36999 ft 482 kts 38°
2026-05-06 23:05 22.64803 -84.25342 37004 ft 484 kts 42°
2026-05-06 23:06 22.69255 -84.19831 37001 ft 486 kts 44°
2026-05-06 23:06 22.73609 -84.14209 37000 ft 487 kts 45°
2026-05-06 23:07 22.77981 -84.08590 36999 ft 487 kts 44°
2026-05-06 23:07 22.82364 -84.03054 37003 ft 487 kts 44°
2026-05-06 23:08 22.86788 -83.97471 37001 ft 487 kts 44°
2026-05-06 23:08 22.91202 -83.91881 37003 ft 488 kts 44°
2026-05-06 23:09 22.95617 -83.86279 37003 ft 488 kts 44°
2026-05-06 23:09 23.00028 -83.80674 37007 ft 488 kts 44°
2026-05-06 23:10 23.04417 -83.75091 37000 ft 489 kts 44°
2026-05-06 23:10 23.08826 -83.69476 37006 ft 489 kts 44°
2026-05-06 23:11 23.13243 -83.63845 37004 ft 489 kts 44°
2026-05-06 23:11 23.17656 -83.58214 37006 ft 489 kts 44°
2026-05-06 23:12 23.22070 -83.52575 37009 ft 490 kts 44°
2026-05-06 23:12 23.26488 -83.46924 37009 ft 490 kts 44°
2026-05-06 23:13 23.30876 -83.41306 37005 ft 490 kts 44°
2026-05-06 23:13 23.35292 -83.35644 37014 ft 491 kts 44°
2026-05-06 23:14 23.39714 -83.29970 37011 ft 491 kts 44°
2026-05-06 23:14 23.43385 -83.25253 37011 ft 491 kts 44°
2026-05-06 23:15 23.47808 -83.19565 37018 ft 491 kts 44°
2026-05-06 23:15 23.52226 -83.13878 37016 ft 492 kts 44°
2026-05-06 23:16 23.56650 -83.08182 37021 ft 492 kts 44°
2026-05-06 23:16 23.61038 -83.02512 37023 ft 492 kts 44°
2026-05-06 23:17 23.65454 -82.96796 37025 ft 492 kts 44°
2026-05-06 23:17 23.69872 -82.91076 37027 ft 493 kts 44°
2026-05-06 23:18 23.74289 -82.85350 37026 ft 493 kts 44°
2026-05-06 23:18 23.78708 -82.79617 37023 ft 493 kts 44°
2026-05-06 23:19 23.83090 -82.73926 37029 ft 493 kts 44°
2026-05-06 23:19 23.87508 -82.68181 37031 ft 493 kts 44°
2026-05-06 23:20 23.91920 -82.62436 37028 ft 493 kts 44°
2026-05-06 23:20 23.96336 -82.56681 37033 ft 494 kts 44°
2026-05-06 23:21 24.00752 -82.50918 37035 ft 494 kts 44°
2026-05-06 23:21 24.05151 -82.45139 37027 ft 494 kts 44°
2026-05-06 23:22 24.09546 -82.39328 36930 ft 494 kts 46°
2026-05-06 23:22 24.13926 -82.33539 37032 ft 501 kts 47°
2026-05-06 23:23 24.18405 -82.27608 37038 ft 507 kts 47°
2026-05-06 23:23 24.22892 -82.21658 37036 ft 506 kts 47°
2026-05-06 23:24 24.27375 -82.15709 37038 ft 506 kts 47°
2026-05-06 23:24 24.31855 -82.09762 37037 ft 506 kts 46°
2026-05-06 23:25 24.36333 -82.03810 37046 ft 505 kts 46°
2026-05-06 23:25 24.40807 -81.97857 37053 ft 505 kts 46°
2026-05-06 23:26 24.45283 -81.91892 37058 ft 505 kts 46°
2026-05-06 23:26 24.49719 -81.85974 37064 ft 505 kts 46°
2026-05-06 23:27 24.54184 -81.80010 37066 ft 505 kts 46°